Location: Allen Fire Department Station 4
(33.1073°N, 96.6988°W)
Time: 21:35:08
(UTC+00:00)

Aurora 2 Rocket - Pass Details

Date: 08 July 2022
Orbit: 389 x 1718 km, 25.0° (Epoch: 15 August)

Event Time Altitude Azimuth Distance (km) Brightness Sun altitude
Rises 03:30:33 0° 259° (WSW) 4,972 7.6 -19.6°
Reaches altitude 10° 03:34:09 10° 254° (WSW) 3,925 7.0 -20.1°
Maximum altitude 03:44:07 52° 183° (S) 1,756 4.5 -21.5°
Enters shadow 03:47:32 35° 131° (SE) 2,018 4.6 -22.0°
